Regional Weather Roundup
Issued by NWS

Home | Current Version | Previous Version | Text Only | Print | Product List | Glossary On
Versions: 1 2 3 4 5 6 7 8 9 10 11 12 13 14 15 16 17 18 19 20 21 22 23 24 25 26 27 28 29 30 31 32 33 34 35 36 37 38 39 40 41 42 43 44 45 46 47 48 49 50
000
ASUS43 KMPX 231710
RWRMN
WEATHER ROUNDUP FOR MINNESOTA
NATIONAL WEATHER SERVICE TWIN CITIES/CHANHASSEN MN
1200 PM CDT TUE SEP 23 2014


NOTE: "FAIR" INDICATES FEW OR NO CLOUDS BELOW 12,000 FEET WITH NO
SIGNIFICANT WEATHER AND/OR OBSTRUCTIONS TO VISIBILITY. N/A MEANS
CURRENT SKY AND/OR WEATHER CONDITIONS ARE NOT AVAILABLE.

MNZ060>063-068>070-231800-
   Twin Cities Metro

CITY           SKY/WX    TMP DP  RH WIND       PRES   REMARKS
TWIN CITIES    PTSUNNY   70  52  52 S12       30.22F
ST PAUL        MOSUNNY   69  56  62 SE9       30.23F
CRYSTAL        MOSUNNY   71  51  49 S13       30.20F
BLAINE         PTSUNNY   72  54  53 S10       30.21F
LAKEVILLE      MOSUNNY   70  54  56 S8        30.22F
EDEN PRAIRIE   MOSUNNY   72  54  53 S13       30.20F
SOUTH ST PAUL  MOSUNNY   70  54  56 SE6       30.22F
LAKE ELMO      FAIR      70  55  60 S12       30.24S
$$
MNZ001>005-007-008-013>017-022>024-027-028-231800-
   Northwest Minnesota

CITY           SKY/WX    TMP DP  RH WIND       PRES   REMARKS
BEMIDJI        SUNNY     71  52  50 S14       30.11S
HALLOCK        SUNNY     72  55  56 S18       30.00S
ROSEAU         SUNNY     72  57  60 S9        30.04F
WARROAD        SUNNY     72  59  64 S7        30.05F
THIEF RVR FALL SUNNY     72  55  56 S14       30.04F
CROOKSTON      SUNNY     72  55  56 S14       30.04F
FOSSTON        SUNNY     73  54  49 S15       30.08S
DETROIT LAKES  SUNNY     70  54  56 S13       30.11S
MOORHEAD       SUNNY     72  55  56 S10G18    30.06F
PARK RAPIDS    SUNNY     69  52  54 S12       30.12F
MAHNOMEN       FAIR      71  55  56 S13G21    30.08S
$$
MNZ006-009>011-018-025>026-231800-
   North Central Minnesota

CITY           SKY/WX    TMP DP  RH WIND       PRES   REMARKS
BAUDETTE       SUNNY     71  51  49 S16G22    30.08F
FLAG ISLAND    SUNNY     61  54  77 S14       30.05F
INTL FALLS     SUNNY     71  51  49 VRB5      30.12F
WASKISH        SUNNY     72  54  53 CALM      30.10S
BIG FORK       SUNNY     72  52  49 S14G20    30.15S
LONGVILLE      SUNNY     70  54  56 S13       30.15R
GRAND RAPIDS   SUNNY     68  52  56 S15       30.17S
CRANE LAKE     SUNNY     70  50  49 S6        30.17S
ORR            SUNNY     72  46  40 S15G21    30.14S
COOK           SUNNY     70  48  46 S9G17     30.17F
WALKER         FAIR      69  51  52 S9G17     30.12F
$$
MNZ012-019>021-037-231800-
   Northeast Minnesota

CITY           SKY/WX    TMP DP  RH WIND       PRES   REMARKS
DULUTH         SUNNY     70  50  49 S10       30.20F
ELY            SUNNY     70  48  46 SW12      30.19S
HIBBING        SUNNY     71  50  47 S12G20    30.18F
EVELETH        SUNNY     70  50  49 S12G20    30.19F
DULUTH HARBOR  SUNNY     70  55  60 S6        30.21F
TWO HARBORS    SUNNY     70  54  56 S9        30.19F
SILVER BAY     SUNNY     70  55  60 S7        30.19S
GRAND MARAIS     N/A     55  51  86 SW8       30.20S
G MARAIS ARPRT SUNNY     68  45  42 S7        30.24R
$$
MNZ029>031-032-039>041-046>048-054>057-064-231800-
   West Central Minnesota

CITY           SKY/WX    TMP DP  RH WIND       PRES   REMARKS
FERGUS FALLS   MOSUNNY   70  52  52 S17       30.10S
WHEATON        MOSUNNY   64  52  63 S13G21    30.11R
MORRIS         MOSUNNY   70  54  56 S17       30.11F
ALEXANDRIA     MOSUNNY   68  52  56 S15       30.15S
ELBOW LAKE     FAIR      68  55  62 S18       30.11S
WADENA         SUNNY     70  54  56 S9        30.12F
GLENWOOD       MOSUNNY   70  54  56 S16       30.15F
APPLETON       PTSUNNY   68  54  60 S16G22    30.13S
BENSON         MOSUNNY   66  54  63 SW14G20   30.14S
ORTONVILLE     PTSUNNY   63  54  72 S10G16    30.12R
MADISON        CLOUDY    66  54  63 S14G20    30.13S
WILLMAR        FAIR      70  52  52 S6        30.17S
$$
MNZ033>034-036-042>043-049>051-058-059-231800-
   Central Minnesota

CITY           SKY/WX    TMP DP  RH WIND       PRES   REMARKS
ST CLOUD       MOSUNNY   71  52  50 S14       30.18F
SAUK CENTRE    FAIR      69  53  57 S15       30.16S
PAYNESVILLE    MOSUNNY   66  53  64 SE8       30.17F
AITKIN         SUNNY     72  54  53 S10       30.17R
PINE RIVER     SUNNY     68  54  60 S9        30.18S
BRAINERD       SUNNY     69  51  52 S15       30.17S
STAPLES        SUNNY     68  52  56 SE12      30.14F
LONG PRAIRIE   FAIR      68  52  56 SE14      30.16S
LITTLE FALLS   MOSUNNY   70  50  49 S9        30.17
LITCHFIELD     MOSUNNY   70  57  64 SE5       30.18F
BUFFALO        MOSUNNY   69  53  55 S8        30.21S
MAPLE LAKE     MOSUNNY   69  56  63 S6        30.20F
$$
MNZ037-044-045-052-053-231800-
   East Central Minnesota

CITY           SKY/WX    TMP DP  RH WIND       PRES   REMARKS
PRINCETON      MOSUNNY   72  54  53 SE7       30.20F
MORA           SUNNY     70  54  56 S13       30.22S
CAMBRIDGE      SUNNY     73  55  53 SE12      30.19F
RUSH CITY      SUNNY     70  53  54 S8        30.21F
MOOSE LAKE     SUNNY     68  50  52 S12G22    30.19S
HINCKLEY       FAIR      68  54  60 S12       30.21F
CLOQUET        SUNNY     68  52  56 S9G17     30.21F
MCGREGOR       SUNNY     70  52  52 S12G21    30.19S
$$
MNZ071>073-080-081-089-090-097-098-231800-
   Southwest Minnesota

CITY           SKY/WX    TMP DP  RH WIND       PRES   REMARKS
MONTEVIDEO     PTSUNNY   68  55  64 SW12      30.15S
GRANITE FALLS  PTSUNNY   66  53  63 S18       30.18R
CANBY          DRIZZLE   61  53  73 S13G20    30.14F
MARSHALL       CLOUDY    61  52  72 S14G20    30.15S
REDWOOD FALLS  PTSUNNY   69  54  58 S13       30.17S
OLIVIA         PTSUNNY   68  55  64 S6        30.16S
PIPESTONE      LGT RAIN  57  54  88 S7        30.15S
WINDOM         CLOUDY    63  54  72 S8        30.18F
WORTHINGTON    CLOUDY    57  54  88 SE8       30.18F
JACKSON        CLOUDY    63  52  67 S8        30.20F
TRACY          LGT RAIN  59  54  82 S8        30.16F
SLAYTON        LGT RAIN  56  55  95 CALM      30.17F
$$
MNZ065>067-074>077-082>085-091>093-231800-
   South Central Minnesota

CITY           SKY/WX    TMP DP  RH WIND       PRES   REMARKS
MANKATO        PTSUNNY   68  52  56 S15       30.21F
NEW ULM        PTSUNNY   66  55  68 S8        30.19S
ST JAMES       PTSUNNY   70  52  52 S14G23    30.20F
FAIRMONT       PTSUNNY   66  48  52 S14G20    30.20F
GLENCOE        MOSUNNY   71  51  50 S7G17     30.19F
FARIBAULT      MOSUNNY   73  48  40 S10       30.24S
OWATONNA       MOSUNNY   68  54  60 S8        30.24S
WASECA         PTSUNNY   68  48  49 S13G18    30.25S
ALBERT LEA     PTSUNNY   66  54  63 SE8       30.25S
$$
MNZ078>079-086>088-094>096-231800-
   Southeast Minnesota

CITY           SKY/WX    TMP DP  RH WIND       PRES   REMARKS
ROCHESTER      SUNNY     69  52  54 S10       30.28F
RED WING       MOSUNNY   70  55  60 SE5       30.24S
STANTON        MOSUNNY   72  51  46 S12G17    30.22S
DODGE CENTER   MOSUNNY   68  54  60 S14       30.26S
WINONA         SUNNY     70  59  68 SE5       30.27F
AUSTIN         PTSUNNY   64  54  68 S8        30.26S
PRESTON        SUNNY     67  56  68 SW10G18   30.28F
$$
ABBREVIATIONS USED IN REMARKS
   TC - TEMPERATURES IN CELSIUS
  WCI - WIND CHILL INDEX
   HX - HEAT INDEX
  VSB - VISIBILITY
$$



USA.gov is the U.S. government's official web portal to all federal, state and local government web resources and services.